Location: Champseau
(45.8333°N, 1.7667°E)
Time: 12:00:11
(UTC+00:00)

Envisat - Pass Details

Date: 01 October 2021
Orbit: 764 x 766 km, 98.2° (Epoch: 20 October)

Event Time Altitude Azimuth Distance (km) Brightness Sun altitude
Rises 03:34:45 0° 33° (NNE) 3,240 7.1 -24.1°
Reaches altitude 10° 03:38:32 10° 62° (ENE) 2,307 6.6 -23.5°
Maximum altitude 03:40:42 13° 87° (E) 2,124 6.2 -23.2°
Drops below altitude 10° 03:42:51 10° 112° (ESE) 2,299 6.1 -22.8°
Sets 03:46:36 0° 141° (SE) 3,218 6.5 -22.2°
